Wind_Speed
49 49 50 49 49 50 50 50 49 48 49 49 50 50 50 50 50 50 50 49 49 49 49 49 49 49 49 49 49 49 49 50 51 51 51 51 51 51
49 48 48 48 49 49 49 49 49 50 49 49 50 50 51 50 50 50 50 51 50 50 50 50 49 49 48 48 49 49 50 51 51 51 51 51 51 51
48 47 47 47 47 48 49 50 50 50 50 49 50 50 50 50 50 50 50 50 51 51 50 50 50 49 48 48 49 50 50 50 51 51 51 51 51 50
47 47 47 48 48 48 49 49 49 50 50 50 50 50 50 51 51 51 51 51 51 50 50 49 49 48 49 49 50 50 50 50 50 49 50 50 50 50
48 48 48 49 49 48 48 48 49 49 50 50 50 50 50 51 51 51 51 50 49 49 49 48 48 48 49 49 49 49 48 48 48 48 48 48 49 48
49 48 48 48 49 49 49 49 48 48 48 49 49 49 49 49 50 49 49 48 48 48 47 47 47 47 48 48 47 47 47 47 47 47 47 46 46 46
48 49 49 48 49 49 49 49 48 47 47 47 47 48 48 47 47 47 47 46 46 46 46 47 47 47 47 47 46 46 46 46 46 45 44 44 44 44
47 47 47 47 47 47 47 47 47 46 46 46 46 46 46 46 46 46 46 47 46 45 46 46 46 46 45 45 45 45 45 44 44 43 42 42 42 42
45 45 46 45 45 44 44 45 45 45 46 46 45 45 46 45 46 46 46 45 45 44 45 45 45 44 44 44 44 44 43 42 42 41 41 40 40 40
41 41 42 42 42 42 42 42 43 43 44 44 44 45 45 45 45 44 44 44 44 44 44 43 43 43 43 43 44 44 43 42 40 39 39 39 39 38
36 37 37 38 39 40 40 40 40 40 41 41 41 42 43 42 43 43 43 43 42 43 43 42 41 41 41 42 42 42 41 40 39 38 38 37 37 36
34 34 35 35 35 36 37 38 38 37 37 38 38 38 39 39 39 40 40 40 40 39 39 39 38 39 39 39 39 38 37 37 37 36 36 36 35 35
32 32 33 33 33 34 34 35 35 35 34 35 35 36 36 37 37 38 38 38 37 37 36 35 35 35 35 33 33 33 33 34 34 34 33 33 32 32
28 29 30 31 31 32 33 33 33 33 33 33 34 34 34 35 35 35 34 34 33 33 32 31 30 30 29 28 28 29 29 30 30 30 30 30 30 30
25 26 28 29 30 31 31 31 32 32 33 33 32 32 32 32 32 31 31 30 30 29 28 27 26 25 25 24 24 24 25 26 27 27 27 27 28 28
24 25 26 27 28 29 28 29 30 30 31 31 30 30 29 27 27 27 27 27 26 25 24 23 23 22 22 22 22 22 23 24 24 24 25 25 25 26
22 23 23 23 24 24 25 25 26 26 26 27 26 26 26 25 24 24 24 24 23 23 22 21 21 20 21 21 20 20 21 21 21 22 22 21 22 22
20 20 21 21 22 22 23 23 23 23 23 23 23 23 23 23 23 22 21 21 21 21 21 20 20 20 19 20 20 19 18 18 18 18 18 19 19 19
19 19 19 19 20 20 20 20 20 20 20 21 21 21 21 21 21 20 19 19 19 18 18 18 18 17 17 17 17 17 16 16 16 16 16 16 15 15
18 18 18 18 18 18 18 18 17 17 17 17 17 17 18 18 18 18 17 16 15 15 16 16 16 16 16 15 15 15 15 15 15 15 14 14 14 14
17 17 17 16 16 16 16 16 16 15 15 15 15 15 14 15 15 14 14 13 13 13 13 14 14 14 14 14 14 13 14 15 14 14 13 13 13 13
16 16 15 15 14 14 14 14 14 14 14 13 13 13 13 13 12 12 12 12 12 12 12 13 13 13 13 13 12 12 12 13 12 12 12 12 12 12
15 15 14 13 13 14 14 13 12 12 12 11 11 11 11 11 11 11 11 12 12 12 12 13 13 13 12 12 12 11 11 11 10 10 11 11 11 11
Wind_Direction
267 267 267 267 267 268 267 268 268 268 269 270 270 270 270 271 273 274 275 276 277 278 279 279 279 280 279 278 277 277 277 278 278 279 279 280 280 280
267 267 267 267 267 267 267 268 269 269 269 270 270 271 272 272 273 274 275 275 276 277 278 278 279 280 279 278 277 278 278 279 279 280 280 280 280 280
267 267 268 269 268 268 268 268 269 270 270 270 271 272 272 273 274 275 275 276 276 276 277 278 279 278 278 278 278 279 279 280 280 280 280 280 280 281
267 267 267 268 269 270 270 271 271 271 271 271 271 272 273 273 275 276 276 276 275 276 276 277 277 277 278 278 278 279 279 280 280 280 281 280 281 281
267 267 267 268 269 270 270 270 271 271 271 271 271 272 273 274 275 275 275 275 275 275 276 276 276 277 278 279 279 279 279 280 280 281 281 281 281 282
267 267 268 268 269 269 270 271 271 272 272 272 272 273 274 275 275 275 274 274 276 276 276 276 276 278 279 279 279 279 279 279 279 280 281 281 281 281
267 267 268 268 269 269 270 270 271 272 273 273 274 274 274 274 274 275 275 275 276 276 276 276 277 278 278 278 278 279 279 279 279 280 280 280 281 281
267 267 267 269 269 269 270 271 271 272 273 274 274 275 275 275 275 276 276 276 276 277 277 278 279 279 278 278 278 278 279 279 279 279 279 279 280 280
268 267 267 268 268 269 270 270 271 272 273 273 274 275 275 275 276 277 277 277 277 277 278 279 280 280 279 279 278 279 278 279 279 278 278 279 280 281
269 268 267 267 267 268 269 270 271 272 273 274 274 275 276 276 276 277 278 278 279 279 279 279 280 281 279 279 279 279 278 278 278 277 278 280 281 281
270 269 268 268 268 269 270 270 271 272 273 274 275 276 275 275 275 276 277 278 279 280 280 280 280 280 280 279 279 278 277 277 277 278 279 280 281 282
271 270 270 270 269 270 270 271 271 272 272 274 275 276 275 274 274 275 277 278 280 281 280 281 281 281 281 280 279 277 276 276 276 277 279 280 280 280
271 271 272 272 271 271 271 271 272 272 272 273 275 276 275 274 275 276 278 279 281 282 282 282 282 282 282 281 278 277 277 277 276 277 279 280 280 279
273 273 273 273 273 273 273 272 272 270 271 274 275 275 275 276 275 277 278 279 281 282 282 283 284 282 281 282 281 279 279 278 278 278 279 280 280 279
275 276 276 276 275 275 274 273 272 270 270 273 275 275 274 275 275 276 277 277 279 282 283 283 284 283 282 283 283 281 280 279 279 280 281 281 281 280
279 279 279 278 277 276 275 274 273 271 271 273 273 273 273 274 276 276 276 276 277 279 282 283 283 283 283 285 285 284 283 282 282 283 284 284 283 282
281 281 280 278 277 277 277 276 276 276 274 273 272 272 271 274 276 276 276 275 275 277 280 282 283 284 283 283 287 289 288 288 287 287 287 286 285 285
282 282 281 280 279 280 279 278 277 276 274 274 273 273 272 272 274 277 277 276 275 276 277 278 280 283 285 287 288 291 292 292 292 291 290 288 287 288
283 285 285 284 283 281 279 277 277 277 276 276 275 273 273 272 273 275 277 277 276 274 275 277 280 283 286 288 287 289 292 293 293 292 291 290 291 290
283 286 287 286 284 283 281 279 279 278 279 279 277 276 275 273 273 273 275 275 273 274 276 278 281 284 286 288 287 289 291 294 296 294 292 292 293 292
283 285 287 286 285 285 284 282 282 280 279 280 278 277 277 275 273 272 273 272 272 274 277 281 283 285 286 288 290 292 294 296 296 293 291 292 294 295
285 285 285 285 285 287 287 285 283 282 282 280 278 279 279 277 274 272 271 271 275 278 280 281 284 287 288 290 293 295 296 296 295 292 292 294 298 300
284 286 286 285 285 285 286 285 283 282 282 279 279 281 282 278 273 269 269 273 277 279 280 281 282 285 288 289 291 295 298 298 298 296 296 298 301 304
Height
5655 5656 5658 5658 5659 5659 5660 5661 5663 5664 5665 5664 5663 5663 5662 5662 5662 5661 5660 5659 5658 5656 5655 5654 5652 5651 5649 5648 5646 5645 5644 5642 5641 5640 5638 5636 5635 5633
5642 5643 5645 5645 5645 5646 5647 5648 5648 5649 5650 5651 5650 5650 5649 5649 5648 5648 5647 5646 5645 5643 5641 5640 5638 5637 5635 5634 5633 5631 5630 5628 5627 5625 5623 5622 5620 5618
5629 5631 5632 5632 5632 5633 5633 5634 5635 5635 5636 5637 5636 5636 5636 5635 5634 5633 5633 5632 5631 5629 5628 5626 5625 5623 5622 5620 5619 5617 5616 5614 5612 5610 5608 5607 5605 5604
5616 5617 5619 5619 5619 5620 5620 5621 5621 5621 5622 5623 5623 5622 5622 5621 5620 5619 5618 5617 5616 5615 5613 5612 5611 5609 5608 5607 5605 5603 5601 5600 5598 5596 5595 5593 5591 5588
5603 5604 5605 5606 5606 5607 5607 5607 5607 5607 5607 5608 5608 5608 5608 5607 5606 5605 5604 5603 5602 5601 5600 5599 5597 5596 5594 5593 5591 5589 5587 5586 5584 5582 5580 5578 5576 5574
5589 5590 5591 5592 5593 5593 5593 5594 5594 5594 5594 5594 5594 5594 5594 5593 5592 5591 5591 5590 5589 5587 5586 5585 5584 5582 5581 5579 5577 5575 5574 5572 5570 5568 5566 5565 5563 5561
5575 5576 5577 5578 5579 5579 5580 5580 5580 5581 5581 5580 5580 5580 5580 5579 5579 5578 5577 5576 5576 5574 5573 5572 5571 5569 5567 5565 5563 5561 5560 5558 5556 5555 5553 5551 5550 5548
5562 5563 5564 5564 5565 5566 5566 5566 5567 5567 5567 5567 5567 5567 5566 5566 5565 5564 5563 5563 5563 5563 5560 5559 5557 5556 5554 5552 5550 5548 5546 5545 5543 5542 5540 5539 5537 5535
5549 5550 5550 5551 5552 5553 5553 5553 5553 5553 5554 5554 5554 5554 5553 5553 5552 5551 5550 5550 5550 5549 5547 5546 5544 5543 5541 5539 5536 5535 5533 5532 5531 5529 5528 5527 5525 5524
5536 5537 5538 5539 5540 5541 5541 5541 5541 5541 5541 5542 5542 5541 5540 5539 5539 5539 5538 5537 5537 5535 5533 5533 5532 5530 5528 5526 5523 5522 5520 5519 5518 5517 5516 5515 5513 5512
5525 5526 5527 5528 5529 5529 5530 5530 5529 5529 5529 5529 5529 5528 5527 5527 5526 5526 5526 5525 5525 5524 5521 5520 5519 5517 5516 5513 5511 5509 5508 5507 5506 5505 5504 5503 5502 5500
5515 5516 5517 5517 5517 5517 5517 5518 5518 5518 5518 5518 5517 5517 5516 5516 5515 5515 5514 5513 5512 5512 5510 5508 5506 5504 5504 5502 5499 5497 5496 5495 5494 5494 5493 5491 5490 5489
5505 5506 5506 5507 5507 5506 5506 5507 5507 5507 5507 5507 5507 5506 5506 5505 5504 5504 5503 5502 5501 5501 5499 5497 5495 5493 5491 5491 5489 5487 5486 5485 5484 5483 5482 5481 5480 5479
5496 5497 5497 5497 5497 5497 5496 5496 5497 5497 5497 5497 5496 5496 5496 5495 5494 5494 5493 5492 5491 5490 5489 5487 5485 5483 5482 5481 5480 5479 5477 5476 5475 5474 5473 5472 5470 5469
5488 5488 5488 5488 5488 5488 5487 5487 5487 5487 5487 5487 5487 5486 5486 5486 5485 5484 5484 5483 5482 5481 5480 5478 5477 5475 5474 5473 5472 5471 5470 5468 5467 5465 5464 5463 5462 5461
5481 5481 5480 5480 5480 5479 5479 5478 5478 5478 5478 5478 5477 5477 5477 5477 5476 5476 5476 5475 5475 5474 5472 5471 5470 5469 5467 5466 5465 5464 5462 5461 5459 5458 5456 5455 5454 5453
5474 5474 5473 5473 5472 5471 5471 5470 5470 5470 5469 5469 5469 5469 5469 5469 5469 5468 5468 5468 5467 5467 5466 5465 5464 5462 5461 5460 5459 5457 5456 5454 5452 5451 5449 5448 5447 5446
5468 5467 5466 5466 5465 5465 5464 5464 5463 5463 5462 5462 5462 5462 5462 5462 5462 5462 5461 5461 5461 5460 5459 5459 5458 5457 5456 5455 5454 5452 5450 5448 5447 5445 5443 5443 5442 5440
5462 5461 5461 5460 5459 5458 5458 5457 5457 5456 5456 5456 5456 5456 5456 5456 5456 5456 5455 5455 5454 5454 5454 5453 5452 5451 5451 5450 5449 5447 5445 5444 5442 5440 5439 5438 5437 5435
5457 5456 5455 5455 5454 5453 5452 5452 5451 5451 5450 5450 5450 5450 5450 5450 5450 5450 5450 5450 5449 5449 5449 5448 5447 5447 5446 5445 5444 5443 5440 5439 5437 5436 5435 5433 5432 5431
5452 5451 5450 5449 5449 5448 5447 5447 5446 5446 5446 5445 5445 5445 5445 5445 5445 5445 5445 5445 5445 5445 5444 5444 5443 5442 5441 5440 5440 5438 5436 5434 5433 5432 5431 5430 5429 5428
5446 5446 5445 5445 5444 5444 5443 5442 5442 5442 5441 5441 5441 5441 5441 5440 5440 5441 5441 5441 5441 5441 5440 5440 5439 5438 5437 5437 5435 5434 5433 5431 5429 5428 5427 5427 5425 5424
5442 5441 5441 5441 5440 5440 5439 5439 5438 5438 5438 5437 5437 5437 5437 5437 5437 5437 5437 5437 5437 5437 5437 5436 5435 5435 5434 5433 5432 5430 5429 5428 5426 5425 5424 5423 5422 5420